Regional Weather Roundup
Issued by NWS Burlington, VT

Home | Current Version | Previous Version | Text Only | Print | Product List | Glossary On
Versions: 1 2 3 4 5 6 7 8 9 10 11 12 13 14 15 16 17 18 19 20 21 22 23 24 25 26 27 28 29 30 31 32 33 34 35 36 37 38 39 40 41 42 43 44 45 46 47 48 49 50
000
ASUS41 KBTV 190930
RWRBTV
VERMONT REGIONAL WEATHER ROUNDUP
NATIONAL WEATHER SERVICE BURLINGTON VT
500 AM EDT FRI SEP 19 2014

NOTE: "FAIR" INDICATES FEW OR NO CLOUDS BELOW 12,000 FEET WITH NO
SIGNIFICANT WEATHER AND/OR OBSTRUCTIONS TO VISIBILITY.

* THESE REPORTS ARE NOT UNDER NWS QUALITY CONTROL AND/OR DO NOT
  REPORT WEATHER SUCH AS PRECIPITATION AND FOG.

VTZ001>019-191000-
_____VERMONT_____


CITY           SKY/WX    TMP DP  RH WIND       PRES   REMARKS
BURLINGTON     SUNNY     35  31  85 CALM      30.34R
MONTPELIER     FOG       30  30 100 CALM      30.34R VSB 1/4
MORRISVILLE    FOG       30  28  92 CALM      30.34R VSB 1/2
ST. JOHNSBURY*   N/A     31  30  96 MISG      30.31R
MIDDLEBURY*    FAIR      32  32 100 CALM      30.32R FOG
RUTLAND*       PTSUNNY   34  32  93 E5        30.31R
SPRINGFIELD    FOG       33  33 100 CALM      30.32R VSB<1/4
HIGHGATE*      FAIR      31  31  99 CALM      30.35R FOG
NEWPORT*       FAIR      30  29  96 CALM      30.32R
BENNINGTON     MOSUNNY   38  35  89 CALM      30.28R
GALLUP MILLS*    N/A     27 N/A N/A MISG        N/A
UNION VILLAGE*   N/A     32 N/A N/A MISG        N/A
MT. MANSFIELD*   N/A     28 N/A N/A N10         N/A  WCI  19

_____LAKE CHAMPLAIN_____


CITY           SKY/WX    TMP DP  RH WIND       PRES   REMARKS
BURTON ISLAND*   N/A     41  34  75 N1          N/A
COLCHESTER RF*   N/A     45  34  65 N14         N/A
DIAMOND ISL*     N/A     43  32  65 NW12        N/A

$$

NYZ007-026>031-035-052-083-191000-
_____NORTHERN NEW YORK_____


CITY           SKY/WX    TMP DP  RH WIND       PRES   REMARKS
PLATTSBURGH    SUNNY     33  31  92 CALM      30.34R
SARANAC LAKE   SUNNY     23  21  92 CALM      30.28R
MASSENA        SUNNY     30  29  96 CALM      30.36R FOG
OGDENSBURG*    SUNNY     30  30 100 CALM      30.36R
POTSDAM*       SUNNY     30  30 100 CALM      30.35R FOG
PARISHVILLE*     N/A     30 N/A N/A NE2         N/A
WATERTOWN      SUNNY     34  28  79 CALM      30.34R
FT DRUM        SUNNY     34  32  93 SE3       30.32R
ALBANY         MOSUNNY   42  35  76 N6        30.31R
GLENS FALLS    SUNNY     34  32  92 CALM      30.32R FOG

$$
NHZ002-005-011-191000-
_____NEW HAMPSHIRE_____


CITY           SKY/WX    TMP DP  RH WIND       PRES   REMARKS
LEBANON        CLOUDY    34  30  85 NE5       30.32R FOG
KEENE          SUNNY     36  27  69 CALM      30.31R
MT WASHINGTON  MOSUNNY   16   7  67 N33         N/A  WCI  -5
PLYMOUTH       FAIR      35  35 100 NW7       30.31R
WHITEFIELD     SUNNY     27  23  85 CALM      30.30R

$$

_____REGIONAL QUEBEC LOCATIONS_____


CITY           SKY/WX    TMP DP  RH WIND       PRES   REMARKS
MONTREAL       SUNNY     36  28  75 N8        30.36R
QUEBEC CITY    SUNNY     28  25  86 W6        30.32R
SHERBROOKE     SUNNY     27  27 100 VRB2      30.31R

_____REGIONAL ONTARIO LOCATIONS_____


CITY           SKY/WX    TMP DP  RH WIND       PRES   REMARKS
OTTAWA         SUNNY     34  30  86 N6        30.35R

______KEY______
VSB  - VISIBILITY IN MILES
WCI  - WIND CHILL INDEX
HX   - HEAT INDEX
$$
NNNN


USA.gov is the U.S. government's official web portal to all federal, state and local government web resources and services.